{"data":{"norad_id":53391,"epoch":"2026-05-25T03:40:56.225856Z","epoch_age_seconds":60972,"freshness":"FRESH","line1":"1 53391U 22097D   26145.15342854 -.00002157  00000+0 -11746-3 0  9999","line2":"2 53391  53.2125 140.8615 0000977  92.7725 267.3378 15.08849717210213","mean_motion":15.08849717,"eccentricity":9.77e-5,"inclination_deg":53.2125,"raan_deg":140.8615,"arg_perigee_deg":92.7725,"mean_anomaly_deg":267.3378,"bstar":-0.00011746,"rev_number":21021,"period_min":95.436940059419,"perigee_km":539.03781412961,"apogee_km":540.38956215408,"semimajor_km":6917.8506881418,"source":"CELESTRAK","updated_at":"2026-05-25T13:38:17.394371Z"}}